Location: Foots Cray
(51.4000°N, 0.1167°E)
Time: 23:37:41
(UTC+00:00)

Geosat - Pass Details

Date: 15 May 2026
Orbit: 758 x 760 km, 108.0° (Epoch: 11 June)

Event Time Altitude Azimuth Distance (km) Brightness Sun altitude
Rises 22:25:44 0° 32° (NNE) 3,231 7.8 -16.8°
Reaches altitude 10° 22:28:03 10° 37° (NE) 2,301 6.9 -17.0°
Maximum altitude 22:33:00 60° 117° (ESE) 870 4.0 -17.3°
Enters shadow 22:35:39 27° 188° (S) 1,435 4.9 -17.4°
